SCP
0 0 0 0 0 0 0 0 0 0 0 0 0 0 0 0 0 0 0 0 0 0 0 0 0 0 0 0 0 0 0 0 0 0 0 0 0 0 0 0 0 0 0
0 0 0 0 0 0 0 0 0 0 0 0 0 0 0 0 0 0 0 0 0 0 0 0 0 0 0 0 0 0 0 0 0 0 0 0 0 0 0 0 0 0 0
0 0 0 0 0 0 0 0 0 0 0 0 0 0 0 0 0 0 0 0 0 0 0 0 0 0 0 0 0 0 0 0 0 0 0 0 0 0 0 0 0 0 0
0 0 0 0 0 0 0 0 0 0 0 0 0 0 0 0 0 0 0 0 0 0 0 0 0 0 0 0 0 0 0 0 0 0 0 0 0 0 0 0 0 0 0
0 0 0 0 0 0 0 0 0 0 0 0 0 0 0 0 0 0 0 0 0 0 0 0 0 0 0 0 0 0 0 0 0 0 0 0 0 0 0 0 0 0 0
0 0 0 0 0 0 0 0 0 0 0 0 0 0 0 0 0 0 0 0 0 0 0 0 0 0 0 0 0 0 0 0 0 0 0 0 0 0 0 0 0 0 0
0 0 0 0 0 0 0 0 0 0 0 0 0 0 0 0 0 0 0 0 0 0 0 0 0 0 0 0 0 0 0 0 0 0 0 0 0 0 0 0 0 0 0
0 0 0 0 0 0 0 0 0 0 0 0 0 0 0 0 0 0 0 0 0 0 0 0 0 0 0 0 0 0 0 0 0 0 0 0 0 0 0 0 0 0 0
0 0 0 0 0 0 0 0 0 0 0 0 0 0 0 0 0 0 0 0 0 0 0 0 0 0 0 0 0 0 0 0 0 0 0 0 0 0 0 0 0 0 0
0 0 0 0 0 0 0 0 0 0 0 0 0 0 0 0 0 0 0 0 0 0 0 0 0 0 0 0 0 0 0 0 0 0 0 0 0 0 0 0 0 0 0
0 0 0 0 0 0 0 0 0 0 0 0 0 0 0 0 0 0 0 0 0 0 0 0 0 0 0 0 0 0 0 0 0 0 0 0 0 0 0 0 0 0 0
0 0 0 0 0 0 0 0 0 0 0 0 0 0 0 0 0 0 0 0 0 0 0 0 0 0 0 0 0 0 0 0 0 0 0 0 0 0 0 0 0 0 0
0 0 0 0 0 0 0 0 0 0 0 0 0 0 0 0 0 0 0 0 0 0 0 0 0 0 0 0 0 0 0 0 0 0 0 0 0 0 0 0 0 0 0
0 0 0 0 0 0 0 0 0 0 0 0 0 0 0 0 0 0 0 0 0 0 0 0 0 0 0 0 0 0 0 0 0 0 0 0 0 0 0 0 0 0 0
0 0 0 0 0 0 0 0 0 0 0 0 0 0 0 0 0 0 0 0 0 0 0 0 0 0 0 0 0 0 0 0 0 0 0 0 0 0 0 0 0 0 0
0 0 0 0 0 0 0 0 0 0 0 0 0 0 0 0 0 0 0 0 0 0 0 0 0 0 0 0 0 0 0 0 0 0 0 0 0 0 0 0 0 0 0
0 0 0 0 0 0 0 0 0 0 0 0 0 0 0 0 0 0 0 0 0 0 0 0 0 0 0 0 0 0 0 0 0 0 0 0 0 0 0 0 0 0 0
0 0 0 0 0 0 0 0 0 0 0 0 0 0 0 0 0 0 0 0 0 0 0 0 0 0 0 0 0 0 0 0 0 0 0 0 0 0 0 0 0 0 0
0 0 0 0 0 0 0 0 0 0 0 0 0 0 0 0 0 0 0 0 0 0 0 0 0 0 0 0 0 -0 0 0 0 0 0 0 0 0 0 0 0 0 0
0 0 0 0 0 0 0 0 0 0 0 0 0 0 0 0 0 0 0 0 0 0 0 0 0 0 0 0 0 0 0 0 0 0 0 0 0 0 0 0 0 0 0
0 0 0 0 0 0 0 0 0 0 0 0 0 0 0 0 0 0 0 0 0 0 0 0 0 0 0 0 0 0 0 0 0 0 0 0 0 0 0 0 0 0 0
0 0 0 0 0 0 0 0 0 0 0 0 0 0 0 0 0 0 0 0 0 0 0 0 0 0 0 0 0 0 0 0 0 0 0 0 0 0 0 0 0 0 0
0 0 0 0 0 0 0 0 0 0 0 0 0 0 0 0 0 0 0 0 0 0 0 0 0 0 0 0 0 0 0 0 0 0 0 0 0 0 0 0 0 0 -0
0 0 0 0 0 0 0 0 0 0 0 0 0 0 0 0 0 0 0 0 0 0 0 0 0 0 0 0 0 0 0 0 0 0 0 0 0 0 0 0 0 -0 -0
0 0 0 0 0 0 0 0 0 0 0 0 0 0 0 0 0 0 0 0 0 0 0 0 0 0 0 0 0 0 0 0 0 0 0 0 0 0 0 0 0 -0 -0
0 0 0 0 0 0 0 0 0 0 0 0 0 0 0 0 0 0 0 0 0 0 0 0 0 0 0 0 0 0 0 0 0 0 0 0 0 0 0 0 0 -0 0
Wind_Speed
5 6 6 7 8 8 9 11 11 11 11 12 11 12 14 15 15 16 16 14 16 15 14 15 16 13 10 9 8 8 9 9 11 7 6 6 8 9 9 8 9 9 11
5 5 6 6 7 7 9 10 10 11 11 11 11 12 13 14 15 17 18 17 18 18 17 16 16 13 15 11 10 11 11 11 10 11 7 7 9 8 8 10 11 12 9
5 5 6 6 7 8 9 9 9 10 10 10 11 13 13 13 14 16 17 17 18 17 16 17 16 15 16 14 13 12 11 11 10 10 9 7 8 8 8 10 12 10 12
6 6 7 7 7 8 8 8 8 8 9 10 11 12 12 12 13 14 14 15 15 15 15 16 16 18 17 16 14 14 12 11 10 9 9 8 9 8 8 9 10 8 10
7 7 8 7 7 7 7 8 8 8 9 9 10 11 10 10 11 12 13 14 14 14 15 16 17 21 24 20 15 13 12 11 10 10 10 9 10 8 9 7 10 8 8
8 9 8 8 7 7 8 8 9 9 9 9 10 11 11 11 19 26 19 13 14 15 15 15 16 23 28 34 32 28 22 15 13 12 11 11 12 10 8 8 8 9 11
9 9 9 8 8 8 8 9 9 9 9 10 11 11 13 15 24 26 28 16 14 15 15 14 14 16 24 17 24 32 29 31 27 16 14 14 13 10 8 10 10 11 14
10 10 9 8 8 9 9 10 10 9 9 9 10 11 12 15 23 25 26 18 13 15 16 15 15 14 16 17 15 16 15 16 18 14 12 12 11 9 9 10 12 13 13
10 10 9 8 9 10 10 11 10 9 9 9 9 10 11 13 20 23 24 10 11 14 14 15 16 15 23 29 19 16 16 15 21 26 25 22 25 26 20 11 10 10 13
10 10 10 9 10 11 11 11 9 8 9 8 9 9 10 10 17 22 22 8 10 10 11 14 24 23 25 29 19 15 17 14 11 11 15 18 16 16 23 12 8 10 12
10 10 10 10 10 11 11 10 10 9 8 9 10 9 9 11 15 20 22 10 10 10 10 10 12 26 29 30 25 15 18 15 9 10 9 9 8 8 8 8 8 9 11
11 11 11 10 10 10 11 10 9 9 9 9 9 9 7 8 12 15 21 21 17 11 10 8 11 24 27 28 22 20 24 20 8 8 8 8 7 7 7 7 9 9 11
11 11 11 11 9 9 10 11 10 8 8 8 8 9 7 5 8 18 20 21 22 13 9 16 18 22 23 18 22 23 18 10 6 7 8 8 6 6 5 5 6 7 9
12 11 10 10 11 10 8 8 8 8 8 8 9 9 8 6 5 5 6 9 14 13 10 14 21 22 17 14 13 12 8 6 7 7 6 5 4 4 5 5 5 6 8
11 10 10 10 11 10 9 8 10 9 11 12 9 8 9 9 9 14 9 6 5 7 6 6 7 7 8 7 6 6 6 5 7 5 5 5 5 6 6 5 5 6 8
10 10 9 9 9 10 10 11 13 16 22 23 21 18 13 17 20 20 19 18 17 16 11 7 8 8 8 8 8 7 7 7 6 6 5 5 5 5 6 5 5 7 9
11 12 10 10 10 10 10 11 12 13 17 20 21 22 20 20 21 20 19 17 17 16 10 7 7 7 7 7 7 7 6 6 5 5 5 5 5 5 6 7 7 7 8
11 14 14 11 11 11 11 11 11 12 12 10 12 18 20 19 19 18 17 13 9 8 6 6 6 6 6 6 6 6 5 5 5 5 5 5 5 6 7 8 7 8 9
11 10 10 11 11 11 11 11 11 12 11 11 9 9 14 15 16 15 13 7 6 5 5 5 5 5 5 6 6 5 5 5 5 4 5 5 5 6 7 8 8 13 12
10 19 18 13 11 11 11 11 11 11 11 10 9 7 6 6 4 5 5 4 5 5 5 5 5 5 5 5 5 5 5 4 5 5 5 5 5 6 8 9 8 8 8
10 13 20 14 11 11 11 11 11 11 10 10 9 9 12 6 5 4 4 4 4 4 5 5 5 5 5 5 5 5 6 5 4 4 5 5 5 6 7 7 8 8 8
10 10 11 12 11 11 12 11 10 10 10 11 8 7 12 6 3 4 4 3 3 4 5 5 5 5 5 5 5 5 5 5 4 4 5 5 5 6 7 7 7 7 8
10 12 12 12 11 15 13 10 10 10 9 8 7 5 3 3 3 3 3 2 2 3 4 4 5 4 4 4 4 4 5 5 4 5 5 5 6 6 6 7 8 9 8
11 12 13 12 11 10 10 10 9 9 8 7 5 3 3 2 2 2 1 1 1 2 3 3 4 5 5 4 3 3 3 4 4 4 6 6 7 6 6 7 8 9 9
12 12 12 11 11 10 10 10 9 8 7 5 4 3 2 2 1 1 1 1 2 3 3 3 3 3 5 5 3 3 6 9 9 6 5 6 6 7 7 8 8 9 9
12 12 11 10 9 9 9 9 8 8 6 4 3 2 1 1 1 1 2 2 2 3 3 2 3 3 4 3 4 6 9 10 11 12 6 4 5 6 7 7 9 9 10
Wind_Direction
261 253 251 248 244 241 239 239 237 236 231 231 226 220 216 215 213 217 221 215 220 221 217 217 218 211 212 212 210 209 213 215 237 236 228 241 244 249 260 260 259 258 262
266 259 258 259 257 251 250 248 241 238 234 233 230 227 224 219 214 216 221 218 219 220 217 216 217 212 213 211 212 215 217 218 228 241 238 240 243 246 249 255 263 263 256
287 274 270 266 262 259 258 256 249 243 240 235 230 231 229 223 218 219 220 220 220 220 217 216 215 211 214 213 212 215 219 223 225 236 243 241 247 249 253 258 258 260 262
301 289 281 272 266 265 266 265 261 253 247 241 236 234 231 225 222 221 220 221 221 219 217 216 213 213 215 213 215 217 218 222 225 233 241 244 249 247 245 254 261 253 259
306 298 286 279 276 276 277 275 271 263 257 249 244 242 234 228 226 222 220 221 220 220 218 217 216 216 219 217 217 216 216 220 224 230 238 244 247 244 243 246 258 261 258
308 300 292 288 282 278 275 274 272 267 262 255 248 246 242 238 242 239 232 224 223 223 223 220 221 226 228 227 226 224 218 218 223 226 232 237 243 241 244 248 258 269 274
304 299 297 292 288 282 279 279 274 269 262 256 251 246 246 246 248 249 245 233 223 225 224 221 223 225 226 227 234 235 232 228 224 221 231 237 242 242 244 254 257 261 268
303 299 298 296 291 287 284 280 277 273 267 262 257 251 249 250 253 253 250 243 230 225 223 220 221 222 221 220 223 230 237 240 239 236 234 241 245 246 241 251 262 269 269
302 299 299 299 295 292 288 282 279 276 273 268 263 257 254 255 256 256 252 239 235 230 223 220 221 221 225 227 223 223 231 238 245 244 243 247 251 255 255 257 260 269 277
299 299 300 299 295 292 288 286 283 276 273 272 269 260 256 255 257 258 254 238 235 234 226 222 225 223 226 229 224 219 226 229 227 237 247 255 258 261 266 261 257 267 275
299 300 299 297 294 292 292 290 288 284 281 279 276 269 259 257 263 261 257 239 231 233 231 225 222 228 229 229 227 221 228 227 221 227 236 242 242 241 244 242 236 242 260
299 298 296 294 295 296 294 293 289 287 286 285 283 280 267 262 263 262 260 254 244 233 232 226 222 225 229 232 231 230 232 236 227 226 235 239 238 238 237 235 234 235 243
300 298 297 296 295 294 293 294 294 290 285 284 282 282 279 261 260 265 265 261 256 245 230 230 228 226 227 232 235 234 234 230 218 227 235 239 235 236 237 241 247 248 252
299 298 297 298 297 295 291 289 290 289 285 284 283 283 281 271 257 251 252 260 260 256 249 238 234 228 223 221 225 233 226 215 216 228 233 236 236 239 243 244 255 261 270
298 297 298 295 295 295 291 287 288 278 280 287 282 276 280 279 269 269 263 242 228 236 233 222 217 210 211 207 206 208 207 214 229 223 226 236 244 250 253 246 252 264 271
304 301 298 296 295 293 293 292 284 283 293 293 290 286 279 276 282 281 276 268 258 246 239 226 216 210 208 205 204 204 205 212 218 222 227 235 245 252 261 261 258 263 271
300 300 299 296 295 293 292 295 298 298 294 293 293 292 289 285 283 283 277 265 257 247 240 225 213 203 201 200 199 199 204 208 208 213 223 231 241 252 261 267 268 268 271
296 299 299 295 293 292 291 292 293 296 299 294 292 292 293 291 287 284 279 269 249 237 229 220 207 197 194 194 195 198 202 201 202 210 220 229 239 253 263 267 268 269 275
298 296 294 291 290 290 290 289 288 288 289 291 291 290 291 291 289 283 279 263 240 224 217 206 194 189 188 189 192 194 196 200 203 209 221 230 239 251 261 265 268 275 280
296 298 300 296 293 292 291 290 290 290 290 290 289 288 288 283 271 272 258 249 241 221 204 192 186 184 182 183 185 188 195 202 207 216 226 234 242 250 260 265 267 272 275
296 296 298 297 292 291 291 291 290 289 288 289 287 283 287 278 263 259 253 246 237 215 192 183 181 180 178 178 182 191 198 207 212 219 229 238 245 255 260 264 267 271 275
295 294 294 294 293 292 293 292 292 291 291 291 289 286 288 281 266 263 253 247 236 203 179 171 172 175 178 181 184 192 203 212 217 223 235 244 251 258 263 266 271 274 277
297 297 296 294 293 297 299 295 293 293 292 290 288 280 269 259 259 261 254 241 216 174 161 159 163 166 170 175 179 189 204 216 218 221 237 251 257 262 266 270 274 278 281
299 298 298 298 298 298 298 298 298 297 295 292 286 274 262 255 258 261 253 187 143 138 141 149 156 166 170 172 180 192 204 220 223 230 240 252 261 265 269 274 276 278 281
302 300 299 300 301 302 303 303 302 300 298 294 284 271 261 249 246 227 161 126 126 130 137 139 144 161 175 184 194 213 236 249 255 255 248 252 258 262 269 274 276 279 279
303 301 301 303 306 307 307 308 309 308 303 297 285 271 253 232 204 156 135 128 130 134 138 138 150 163 178 195 218 239 254 264 270 273 268 252 257 267 272 274 276 279 280